Regional Weather Roundup
Issued by NWS Charleston, WV

Home | Current Version | Previous Version | Graphics & Text | Print | Product List | Glossary On
Versions: 1 2 3 4 5 6 7 8 9 10 11 12 13 14 15 16 17 18 19 20 21 22 23 24 25 26 27 28
000
ASUS41 KRLX 172010
RWRRLX
West Virginia Regional Weather Roundup
National Weather Service Charleston WV
400 PM EDT THU APR 17 2014

Note: "fair" indicates few or no clouds below 12,000 feet with no
significant weather and/or obstructions to visibility.

WVZ003-172100-
Northern Panhandle of West Virginia

CITY           SKY/WX    TMP DP  RH WIND       PRES   REMARKS
WHEELING       SUNNY     63  27  25 S8        30.35F
$$

WVZ009-172100-
Northwest West Virginia

CITY           SKY/WX    TMP DP  RH WIND       PRES   REMARKS
PARKERSBURG    SUNNY     67  25  20 SW10      30.36F
$$

WVZ006-172100-
Western West Virginia

CITY           SKY/WX    TMP DP  RH WIND       PRES   REMARKS
HUNTINGTON     SUNNY     69  25  19 SW9       30.32F
$$

WVZ015-172100-
West Central West Virginia

CITY           SKY/WX    TMP DP  RH WIND       PRES   REMARKS
CHARLESTON     MOSUNNY   69  23  17 SE10      30.33F
$$

WVZ031-172100-
North Central West Virginia

CITY           SKY/WX    TMP DP  RH WIND       PRES   REMARKS
CLARKSBURG     SUNNY     66  23  19 NW5       30.36F
MORGANTOWN     MOSUNNY   65  25  22 NE10      30.37F
$$

WVZ035-042-045-172100-
South Central West Virginia

CITY           SKY/WX    TMP DP  RH WIND       PRES   REMARKS
BECKLEY        SUNNY     59  25  27 SE13G24   30.39F
BLUEFIELD      SUNNY     59  23  25 S8        30.40F
LEWISBURG      SUNNY     56  21  26 SE6       30.42F
$$

WVZ047-172100-
Northern Mountains of West Virginia

CITY           SKY/WX    TMP DP  RH WIND       PRES   REMARKS
ELKINS         SUNNY     66  22  18 VRB3      30.36F
$$

WVZ052-172100-
Eastern Panhandle of West Virginia

CITY           SKY/WX    TMP DP  RH WIND       PRES   REMARKS
MARTINSBURG    MOSUNNY   56  24  29 SE13      30.53F
PETERSBURG     SUNNY     62  33  33 SE8       30.46F
$$



USA.gov is the U.S. government's official web portal to all federal, state and local government web resources and services.